Date String (YYYY-MM-DD hh:mm:ss) UTC,Instrument flags,Ambient pressure (hPa),Sample flow (lpm),Bypass flow (lpm),Sample temperature (°C),Ambient temperature (°C),ASC tube jacket temperature (°C),LED temperature (°C),Box temperature (°C),Sample RH (%),Span deviation,Mass concentration (μg/m³),Mass concentration (μg/m³),Mass concentration (μg/m³)
DateTimeUTC,F1_M11,P_M11,Q1_M11,Q2_M11,T1_M11,T2_M11,T3_M11,T4_M11,T5_M11,U1_M11,ZSPAN_M11,X0_M11,X2_M11,X1_M11
2022-12-08 20:00:00,,0825.2,5.00,0.00,21.7,20.2,00.0,30.5,23.4,07.8,0000.0,0001.19,0000.76,0000.57
2022-12-08 20:01:00,,0825.1,5.00,0.00,21.7,20.2,00.0,30.5,23.4,07.7,0000.0,0001.31,0000.78,0000.57
2022-12-08 20:02:00,,0825.2,5.01,0.00,21.7,20.2,00.0,30.5,23.4,07.6,0000.0,0001.34,0000.78,0000.57
2022-12-08 20:03:00,,0825.3,5.01,0.00,21.7,20.2,00.0,30.5,23.4,07.6,0000.0,0001.32,0000.77,0000.57
2022-12-08 20:04:00,,0825.3,5.00,0.00,21.6,20.2,00.0,30.5,23.3,07.6,0000.0,0001.31,0000.78,0000.58
2022-12-08 20:05:00,,0825.1,4.99,0.00,21.6,20.1,00.0,30.5,23.3,07.6,0000.0,0001.34,0000.79,0000.59
2022-12-08 20:06:00,,0825.1,4.99,0.00,21.6,20.1,00.0,30.5,23.3,07.6,0000.0,0001.38,0000.80,0000.59
2022-12-08 20:07:00,,0825.1,4.99,0.00,21.6,20.1,00.0,30.5,23.3,07.4,0000.0,0001.49,0000.86,0000.61
2022-12-08 20:08:00,,0825.2,5.01,0.00,21.6,20.1,00.0,30.5,23.3,07.5,0000.0,0001.53,0000.89,0000.63
2022-12-08 20:09:00,,0825.0,5.01,0.00,21.6,20.1,00.0,30.5,23.3,07.5,0000.0,0001.57,0000.92,0000.66
2022-12-08 20:10:00,,0825.1,5.01,0.00,21.6,20.1,00.0,30.4,23.3,07.6,0000.0,0001.80,0000.97,0000.67
2022-12-08 20:11:00,,0825.0,4.99,0.00,21.6,20.1,00.0,30.4,23.3,07.7,0000.0,0002.00,0000.97,0000.67
2022-12-08 20:12:00,,0825.0,4.99,0.00,21.6,20.1,00.0,30.4,23.3,07.6,0000.0,0002.22,0001.02,0000.69
2022-12-08 20:13:00,,0825.2,4.99,0.00,21.6,20.3,00.0,30.4,23.4,07.5,0000.0,0002.28,0001.05,0000.69
2022-12-08 20:14:00,,0825.2,5.01,0.00,21.7,21.1,00.0,30.4,23.6,07.5,0000.0,0002.46,0001.08,0000.70
2022-12-08 20:15:00,,0825.2,5.01,0.00,21.8,22.1,00.0,30.4,23.9,07.6,0000.0,0002.48,0001.10,0000.71
2022-12-08 20:16:00,,0825.2,5.00,0.00,21.9,22.1,00.0,30.5,24.0,07.6,0000.0,0002.75,0001.17,0000.74
2022-12-08 20:17:00,,0825.1,4.99,0.00,21.9,21.8,00.0,30.5,24.0,07.6,0000.0,0003.82,0001.19,0000.76
2022-12-08 20:18:00,,0825.1,4.99,0.00,21.9,21.5,00.0,30.6,23.9,07.6,0000.0,0003.73,0001.14,0000.75
2022-12-08 20:19:00,,0825.1,5.00,0.00,21.9,21.3,00.0,30.6,23.8,07.6,0000.0,0003.87,0001.15,0000.74
2022-12-08 20:20:00,,0825.1,5.01,0.00,21.9,21.2,00.0,30.6,23.8,07.7,0000.0,0003.94,0001.19,0000.77
2022-12-08 20:21:00,,0825.2,5.00,0.00,21.9,21.0,00.0,30.7,23.7,07.6,0000.0,0004.47,0001.26,0000.87
2022-12-08 20:22:00,,0825.2,4.98,0.00,21.9,20.9,00.0,30.7,23.7,07.6,0000.0,0005.27,0001.26,0000.90
2022-12-08 20:23:00,,0825.3,5.00,0.00,21.9,20.8,00.0,30.6,23.7,07.6,0000.0,0004.99,0001.21,0000.89
2022-12-08 20:24:00,,0825.3,5.01,0.00,21.9,20.7,00.0,30.7,23.7,07.7,0000.0,0004.97,0001.23,0000.94
2022-12-08 20:25:00,,0825.3,5.00,0.00,21.9,20.6,00.0,30.7,23.7,07.7,0000.0,0004.96,0001.29,0001.02
2022-12-08 20:26:00,,0825.3,5.00,0.00,21.9,20.6,00.0,30.7,23.6,07.8,0000.0,0005.00,0001.32,0001.05
2022-12-08 20:27:00,,0825.3,5.00,0.00,21.9,20.5,00.0,30.7,23.6,07.7,0000.0,0004.71,0001.26,0001.02
2022-12-08 20:28:00,,0825.3,5.00,0.00,21.9,20.5,00.0,30.7,23.6,07.7,0000.0,0003.85,0001.31,0001.02
2022-12-08 20:29:00,,0825.4,5.02,0.00,21.9,20.4,00.0,30.7,23.6,07.6,0000.0,0004.07,0001.36,0001.05
2022-12-08 20:30:00,,0825.5,5.00,0.00,21.8,20.4,00.0,30.6,23.5,07.5,0000.0,0004.12,0001.36,0001.05
2022-12-08 20:31:00,,0825.4,4.99,0.00,21.8,20.3,00.0,30.6,23.5,07.7,0000.0,0005.05,0001.35,0001.02
2022-12-08 20:32:00,,0825.4,4.99,0.00,21.8,20.3,00.0,30.6,23.4,07.7,0000.0,0004.59,0001.26,0000.93
2022-12-08 20:33:00,,0825.4,4.99,0.00,21.8,20.3,00.0,30.6,23.5,07.7,0000.0,0003.67,0001.29,0000.95
2022-12-08 20:34:00,,0825.4,5.00,0.00,21.8,20.3,00.0,30.6,23.5,07.7,0000.0,0003.71,0001.29,0000.95
2022-12-08 20:35:00,,0825.4,5.01,0.00,21.8,20.3,00.0,30.6,23.4,07.7,0000.0,0003.72,0001.24,0000.90
2022-12-08 20:36:00,,0825.4,5.01,0.00,21.7,20.2,00.0,30.6,23.5,07.7,0000.0,0003.61,0001.13,0000.82
2022-12-08 20:37:00,,0825.5,5.00,0.00,21.7,20.2,00.0,30.6,23.4,07.7,0000.0,0003.48,0001.05,0000.76
2022-12-08 20:38:00,,0825.6,4.99,0.00,21.7,20.2,00.0,30.6,23.4,07.7,0000.0,0003.42,0001.03,0000.74
2022-12-08 20:39:00,,0825.5,4.99,0.00,21.7,20.2,00.0,30.6,23.4,07.6,0000.0,0003.21,0000.95,0000.72
2022-12-08 20:40:00,,0825.5,5.00,0.00,21.7,20.2,00.0,30.6,23.4,07.5,0000.0,0003.12,0000.92,0000.68
2022-12-08 20:41:00,,0825.4,5.02,0.00,21.7,20.2,00.0,30.5,23.4,07.5,0000.0,0002.92,0000.91,0000.68
2022-12-08 20:42:00,,0825.5,5.01,0.00,21.7,20.3,00.0,30.5,23.4,07.6,0000.0,0002.27,0000.86,0000.66
2022-12-08 20:43:00,,0825.6,5.01,0.00,21.8,21.1,00.0,30.5,23.7,07.6,0000.0,0003.21,0000.83,0000.64
2022-12-08 20:44:00,,0825.5,4.98,0.00,21.9,22.0,00.0,30.5,23.9,07.6,0000.0,0003.25,0000.77,0000.59
2022-12-08 20:45:00,,0825.5,5.01,0.00,21.9,21.9,00.0,30.6,24.0,07.5,0000.0,0003.12,0000.74,0000.56
2022-12-08 20:46:00,,0825.5,4.99,0.00,22.0,21.7,00.0,30.7,24.0,07.6,0000.0,0003.90,0000.74,0000.54
2022-12-08 20:47:00,,0825.4,4.99,0.00,22.0,21.4,00.0,30.7,23.9,07.5,0000.0,0004.17,0000.73,0000.53
2022-12-08 20:48:00,,0825.4,5.00,0.00,22.0,21.2,00.0,30.7,23.9,07.4,0000.0,0004.22,0000.72,0000.52
2022-12-08 20:49:00,,0825.4,5.00,0.00,22.0,21.1,00.0,30.7,23.9,07.3,0000.0,0004.37,0000.76,0000.50
2022-12-08 20:50:00,,0825.3,5.01,0.00,22.0,20.9,00.0,30.7,23.8,07.2,0000.0,0004.36,0000.76,0000.50
2022-12-08 20:51:00,,0825.4,4.99,0.00,22.0,20.8,00.0,30.7,23.8,07.2,0000.0,0004.28,0000.73,0000.50
2022-12-08 20:52:00,,0825.2,5.00,0.00,22.0,20.7,00.0,30.7,23.8,07.2,0000.0,0004.27,0000.72,0000.51
2022-12-08 20:53:00,,0825.3,5.00,0.00,22.0,20.7,00.0,30.7,23.8,07.1,0000.0,0004.26,0000.72,0000.51
2022-12-08 20:54:00,,0825.2,5.01,0.00,22.0,20.6,00.0,30.7,23.7,07.1,0000.0,0002.38,0000.70,0000.51
2022-12-08 20:55:00,,0825.4,5.01,0.00,21.9,20.5,00.0,30.7,23.7,07.1,0000.0,0002.49,0000.74,0000.52
2022-12-08 20:56:00,,0825.5,5.00,0.00,21.9,20.5,00.0,30.7,23.7,07.1,0000.0,0003.10,0000.91,0000.54
2022-12-08 20:57:00,,0825.5,4.99,0.00,21.9,20.5,00.0,30.7,23.6,07.2,0000.0,0002.23,0000.91,0000.55
2022-12-08 20:58:00,,0825.7,5.01,0.00,21.9,20.4,00.0,30.7,23.6,07.2,0000.0,0002.51,0000.93,0000.56
2022-12-08 20:59:00,,0825.6,4.99,0.00,21.9,20.4,00.0,30.7,23.6,07.1,0000.0,0003.51,0000.97,0000.57
